This is the latest recevied weather packets stored in our database for station/object KP4OZ. If no packets are shown the sender has not sent any weather packets the latest 10 day(s).
| Time | Temp. | Humidity | Pressure | Rain* | Wind** | Luminosity | Snow |
|---|---|---|---|---|---|---|---|
| 1777599944 | 25.56° C | 92% | 1014.7 hPa | 0 mm | - | - | - |
| 1777599642 | 25.56° C | 92% | 1014.7 hPa | 0 mm | - | - | - |
| 1777599338 | 25.56° C | 92% | 1014.8 hPa | 0 mm | - | - | - |
| 1777599035 | 25.56° C | 92% | 1014.7 hPa | 0 mm | - | - | - |
| 1777598732 | 25.56° C | 92% | 1014.6 hPa | 0 mm | - | - | - |
| 1777598427 | 25.56° C | 92% | 1014.3 hPa | 0 mm | - | - | - |
| 1777598127 | 25.56° C | 92% | 1014.4 hPa | 0 mm | - | - | - |
| 1777597822 | 25.56° C | 92% | 1014.2 hPa | 0 mm | - | - | - |
| 1777597521 | 25° C | 92% | 1014.1 hPa | 0 mm | - | - | - |
| 1777597217 | 25° C | 92% | 1014.1 hPa | 0 mm | - | - | - |
| 1777596912 | 25° C | 92% | 1014.1 hPa | 0 mm | - | - | - |
| 1777596610 | 25° C | 92% | 1014.2 hPa | 0 mm | - | - | - |
| 1777596306 | 25° C | 92% | 1014 hPa | 0 mm | - | - | - |
| 1777596004 | 25° C | 92% | 1014 hPa | 1.78 mm | - | - | - |
| 1777595698 | 25° C | 92% | 1014.2 hPa | 1.78 mm | - | - | - |
| 1777595394 | 25° C | 92% | 1014 hPa | 1.27 mm | - | - | - |
| 1777595091 | 25° C | 92% | 1013.8 hPa | 3.05 mm | - | - | - |
| 1777594787 | 25° C | 92% | 1014 hPa | 4.83 mm | - | - | - |
| 1777594484 | 25° C | 92% | 1013.9 hPa | 6.1 mm | - | - | - |
| 1777594179 | 25° C | 91% | 1013.9 hPa | 4.83 mm | - | - | - |
| 1777593875 | 25° C | 91% | 1013.8 hPa | 4.83 mm | - | - | - |
| 1777593572 | 25° C | 91% | 1013.3 hPa | 4.83 mm | - | - | - |
| 1777593272 | 25° C | 90% | 1013.7 hPa | 4.32 mm | - | - | - |
| 1777592967 | 25° C | 90% | 1013.9 hPa | 3.05 mm | - | - | - |
| 1777592662 | 25° C | 90% | 1013.7 hPa | 1.78 mm | - | - | - |
* Rain latest hour (hover to see other rain measurements)
** Current wind speed in m/s (hover to see current wind gust speed)